Retour au catalogue

ASBM-2

ActifMilitaireHEO
NORAD 60423·PAYLOAD·🇳🇴 Norway

Lancé Aug 12, 2024 depuis Vandenberg Space Force Base

Loading…

Prochains Passages (prochaines 24 heures)

TLE

FraisSource: Space-Track

Époque: Sep 8, 2026, 06:16 UTC

1 60423U 24143B   26251.26169309 -.00000040  00000-0  00000-0 0  9996
2 60423  62.9077  42.3116 5627340 269.4333  29.5032  1.50425200 12858

Suivez ASBM-2 en temps réel avec AllMySat

Download on the App Store